[[{"header":{"parameterUnit":"m.s-1","parameterCategory":1,"la1":30.2991,"la2":30.254,"lo1":-89.0895,"lo2":-89.0444,"dy":0.0017,"dx":0.0017,"nx":28,"ny":28,"refTime":"2025-11-08T09:00:00:Z","depth":0,"parameterNumber":2,"parameterNumberName":"U-component_of_WINDS"},"data":[0,0,0,0,0,0,0,0,0,0,0,0,0,0,0,0,0,0,0,0,0,0,0,0,0,0,0,0,0,0,0,0,0,0,0,0,0,0,0,0,0,0,0,0,0,0,0,0,0,0,0,0,0,0,0,0,0,0,2.9483,2.9484,0,2.9521,2.9521,2.9522,2.9511,2.951,2.9509,2.9508,2.9545,2.9547,2.9548,0,0,0,0,0,0,0,0,0,0,0,0,0,2.9402,2.9403,2.9483,2.9484,2.9484,2.9521,2.9521,2.9522,2.9511,2.951,2.9509,2.9508,2.9545,2.9547,2.9549,0,0,0,0,0,0,0,0,0,0,0,0,0,2.9438,2.9404,2.9483,2.9483,2.9483,2.9521,2.9521,2.9522,2.9511,2.951,2.9509,2.9508,2.9544,2.9546,2.9549,2.9588,0,0,2.9557,2.9558,0,0,0,0,0,0,0,0,2.9436,2.9441,2.9483,2.9483,2.9484,2.951,2.9506,2.9544,2.9511,2.95,2.9508,2.9507,2.9534,2.9538,2.9547,2.959,2.9591,2.9557,2.9558,2.956,2.956,0,0,0,0,0,0,0,2.9434,2.9439,2.9498,2.9483,2.9484,2.9481,2.9485,2.9513,2.9523,2.9501,2.9501,2.9505,2.9534,2.9545,2.9548,2.9592,2.9557,2.9559,2.9561,2.9562,2.967,2.9672,0,0,0,0,0,0,2.9431,2.9437,2.9497,2.9499,2.9457,2.9484,2.9488,2.9503,2.9523,2.9525,2.9506,2.9505,2.9541,2.9545,2.9549,2.9597,2.956,2.9562,2.9563,2.9669,2.9671,2.9672,0,0,0,0,0,0,2.9429,2.9436,2.9495,2.9468,2.9476,2.9486,2.9503,2.9504,2.9514,2.9527,2.9528,2.9515,2.954,2.9545,2.9579,2.9598,2.9563,2.9565,2.9667,2.967,2.9671,2.9693,0,0,0,0,0,0,2.9427,2.9436,2.945,2.9469,2.9477,2.9524,2.9504,2.9506,2.9519,2.9517,2.9535,2.9537,2.954,2.9575,2.9581,2.9601,2.9567,2.9666,2.9668,2.9671,2.969,2.9695,2.9699,0,0,0,0,0,2.9424,2.9454,2.9451,2.9458,2.9496,2.9525,2.953,2.9533,2.952,2.9535,2.9544,2.9537,2.9595,2.9579,2.9586,2.9606,2.9665,2.9668,2.9671,2.9688,2.9694,2.9699,0,0,0,0,0,0,2.9436,2.9456,2.9453,2.949,2.9506,2.9524,2.9542,2.9539,2.9558,2.9556,2.9558,2.9562,2.9597,2.9605,2.9586,2.9646,2.9628,2.9633,2.9639,2.9645,2.9649,2.9646,2.957,0,0,0,0,0,2.9444,2.9466,2.9483,2.9514,2.9522,2.9531,2.9544,2.9545,2.9562,2.9568,2.9579,2.9595,2.9617,2.9632,2.9653,2.9692,2.9696,2.971,2.9714,2.9718,2.9722,2.9744,2.9751,2.9682,2.9682,2.9682,0,0,2.9458,2.9472,2.9486,2.9516,2.9529,2.9553,2.9537,2.9562,2.958,2.9572,2.9604,2.9613,2.9632,2.9668,2.9685,2.9676,2.9742,2.9722,2.9725,2.9726,2.9748,2.9755,2.976,2.9684,2.9684,2.9684,0,0,2.9497,2.951,2.9537,2.9551,2.9571,2.9577,2.9584,2.9603,2.9609,2.9642,2.9637,2.9658,2.9696,2.971,2.9722,2.9769,2.9764,2.9776,2.9799,2.9821,2.9827,2.9832,2.9849,2.9855,2.978,2.978,2.978,0,2.9512,2.9548,2.9552,2.9578,2.9592,2.9588,2.9617,2.963,2.9655,2.9665,2.9656,2.9705,2.9717,2.9757,2.9769,2.9779,2.9787,2.9773,2.9826,2.9831,2.9835,2.9852,2.9858,2.9782,2.9781,2.9781,2.9781,0,2.9566,2.9591,2.9611,2.9638,2.9654,2.9681,2.969,2.9706,2.9707,2.9714,2.9749,2.9764,2.9788,2.9799,2.9798,2.984,2.9834,2.9825,2.9807,2.9843,2.9859,2.9865,2.9784,2.9783,2.9783,2.9782,0,0,2.9611,2.9641,2.9648,2.9661,2.9684,2.9704,2.9732,2.9757,2.9771,2.979,2.9814,2.9848,2.9841,2.9854,2.9856,2.9876,2.9913,2.9865,2.9865,2.9873,2.9961,2.9967,2.9974,2.9911,2.9912,2.9913,2.9959,0,2.9651,2.9701,2.9707,2.9751,2.9774,2.9772,2.9797,2.9814,2.9823,2.9844,2.9854,2.9878,2.9867,2.9875,2.9894,2.9905,2.9931,2.9902,2.9932,2.9933,2.9927,2.9982,2.9988,3.003,2.9965,2.9966,2.9967,0,2.9704,2.9726,2.9773,2.9795,2.9805,2.9827,2.9852,2.9873,2.9893,2.9898,2.9915,2.9915,2.9945,2.9927,2.9968,2.9948,2.9961,2.9969,2.997,2.9972,2.9951,2.9985,3.0044,3.005,2.9977,2.9976,2.9975,0,2.9732,2.9773,2.9807,2.9818,2.9844,2.986,2.9872,2.9891,2.9907,2.9929,2.9939,2.9964,2.9977,2.9997,3.0004,2.999,3.0045,3.0027,3.005,3.005,3.006,3.0059,3.0122,3.007,3.007,3.007,3.007,0,2.9776,2.9805,2.982,2.9841,2.9873,2.9881,2.9913,2.9924,2.9942,2.9965,2.9965,2.9986,2.9995,3.0018,3.0024,3.0058,3.0064,3.0069,3.007,3.0069,3.0068,3.0076,3.0073,3.0072,3.0071,3.0071,3.0071,0,2.9812,2.9823,2.986,2.9883,2.989,2.9913,2.9933,2.9953,2.9963,2.9992,2.9999,3.0014,3.0042,3.0052,3.0085,3.0089,3.0128,3.0127,3.0121,3.0121,3.0143,3.0141,3.0213,3.0223,3.0165,3.0166,3.0166,0,2.9839,2.9861,2.9887,2.9903,2.9916,2.9941,2.9958,2.9967,2.9984,3.0011,3.0028,3.0056,3.0078,3.0123,3.0137,3.0163,3.0162,3.0185,3.0165,3.0164,3.0162,3.016,3.0163,3.0188,3.0189,3.0189,3.019,0,2.9885,2.989,2.9914,2.9941,2.9961,2.9983,3.0003,3.0016,3.0028,3.0048,3.0077,3.0095,3.013,3.0158,3.0185,3.0197,3.0196,3.0197,3.0203,3.0201,3.0197,3.0199,3.0131,3.0194,3.0194,3.0193,3.0193,3.0193,2.9917,2.9937,2.996,2.9987,3.0004,3.0024,3.0045,3.0058,3.0082,3.0112,3.0116,3.0148,3.0169,3.0206,3.022,3.0245,3.0238,3.0248,3.025,3.0252,3.0254,3.0194,3.025,3.025,3.025,3.025,3.025,0,2.9963,2.9978,3.0003,3.0033,3.0055,3.0054,3.0077,3.0095,3.0123,3.0144,3.0167,3.0201,3.0229,3.0246,3.0274,3.0291,3.0291,3.0298,3.0296,3.0299,3.0258,3.0249,3.0298,3.0298,3.0298,3.0298,3.0298,3.0298,2.999,3.0024,3.0033,3.0076,3.0091,3.0122,3.0136,3.0155,3.0172,3.021,3.0234,3.0245,3.0265,3.0295,3.0321,3.0326,3.0336,3.0343,3.0347,3.0307,3.0302,3.0297,3.0289,3.0345,3.0346,3.0387,3.0387,3.0387]},{"header":{"parameterUnit":"m.s-1","parameterCategory":1,"la1":30.2991,"la2":30.254,"lo1":-89.0895,"lo2":-89.0444,"dy":0.0017,"dx":0.0017,"nx":28,"ny":28,"refTime":"2025-11-08T09:00:00:Z","depth":0,"parameterNumber":3,"parameterNumberName":"V-component_of_WINDS"},"data":[0,0,0,0,0,0,0,0,0,0,0,0,0,0,0,0,0,0,0,0,0,0,0,0,0,0,0,0,0,0,0,0,0,0,0,0,0,0,0,0,0,0,0,0,0,0,0,0,0,0,0,0,0,0,0,0,0,0,-10.0697,-10.0699,0,-10.0853,-10.0854,-10.0856,-10.0756,-10.0751,-10.0747,-10.0742,-10.0893,-10.0901,-10.091,0,0,0,0,0,0,0,0,0,0,0,0,0,-10.0307,-10.0314,-10.0697,-10.0699,-10.0701,-10.0852,-10.0854,-10.0856,-10.0757,-10.0751,-10.0745,-10.074,-10.0891,-10.09,-10.091,0,0,0,0,0,0,0,0,0,0,0,0,0,-10.047,-10.0317,-10.0696,-10.0669,-10.0669,-10.0852,-10.0854,-10.0857,-10.0758,-10.0751,-10.0744,-10.0738,-10.0887,-10.0899,-10.0912,-10.1128,0,0,-10.095,-10.0955,0,0,0,0,0,0,0,0,-10.0461,-10.0485,-10.0671,-10.0672,-10.0671,-10.0778,-10.0772,-10.0948,-10.076,-10.0724,-10.0742,-10.0734,-10.086,-10.0874,-10.0918,-10.1135,-10.1141,-10.0951,-10.0959,-10.0964,-10.0968,0,0,0,0,0,0,0,-10.045,-10.0477,-10.0758,-10.0674,-10.0674,-10.0647,-10.0663,-10.0805,-10.0828,-10.0726,-10.072,-10.074,-10.0858,-10.0907,-10.0921,-10.1143,-10.0951,-10.0962,-10.097,-10.0974,-10.1546,-10.1553,0,0,0,0,0,0,-10.0442,-10.0469,-10.0753,-10.0763,-10.0547,-10.066,-10.0677,-10.075,-10.0827,-10.0832,-10.0746,-10.0735,-10.0889,-10.0907,-10.0926,-10.1185,-10.0964,-10.0976,-10.0983,-10.1538,-10.1548,-10.1556,0,0,0,0,0,0,-10.0434,-10.0468,-10.0747,-10.0614,-10.0648,-10.0674,-10.0757,-10.0757,-10.0805,-10.0841,-10.0844,-10.0791,-10.0884,-10.0909,-10.1079,-10.1189,-10.0981,-10.0993,-10.1529,-10.1541,-10.1552,-10.1704,0,0,0,0,0,0,-10.0423,-10.0466,-10.055,-10.0617,-10.0655,-10.09,-10.0764,-10.0765,-10.0828,-10.0815,-10.0885,-10.089,-10.088,-10.1061,-10.1092,-10.1202,-10.1002,-10.152,-10.1535,-10.1548,-10.1689,-10.1719,-10.1745,0,0,0,0,0,-10.041,-10.0584,-10.0555,-10.0589,-10.0761,-10.0906,-10.0928,-10.0916,-10.0837,-10.0921,-10.0944,-10.0887,-10.1172,-10.108,-10.1113,-10.1229,-10.1513,-10.153,-10.1547,-10.1677,-10.1714,-10.1745,0,0,0,0,0,0,-10.0525,-10.0592,-10.056,-10.0762,-10.083,-10.0889,-10.0994,-10.0955,-10.1044,-10.1028,-10.1007,-10.1024,-10.1203,-10.1232,-10.1128,-10.1443,-10.1329,-10.1354,-10.1417,-10.1452,-10.1479,-10.1468,-10.1013,0,0,0,0,0,-10.0575,-10.0691,-10.0741,-10.0915,-10.0951,-10.0968,-10.103,-10.1016,-10.1084,-10.1111,-10.1147,-10.1213,-10.1317,-10.1386,-10.1484,-10.1693,-10.1707,-10.179,-10.1817,-10.184,-10.1862,-10.1976,-10.2013,-10.1613,-10.1613,-10.1612,0,0,-10.0678,-10.0729,-10.0802,-10.094,-10.099,-10.1108,-10.0992,-10.1121,-10.1208,-10.1129,-10.1294,-10.1323,-10.1395,-10.1587,-10.1673,-10.1617,-10.1976,-10.1862,-10.188,-10.1889,-10.1997,-10.2035,-10.2069,-10.1625,-10.1622,-10.1621,0,0,-10.0925,-10.0976,-10.1127,-10.1181,-10.1261,-10.1271,-10.1307,-10.1374,-10.1391,-10.1557,-10.1501,-10.1603,-10.1783,-10.1837,-10.1888,-10.216,-10.2111,-10.2192,-10.2337,-10.2449,-10.248,-10.2508,-10.2605,-10.264,-10.2213,-10.2214,-10.2214,0,-10.1042,-10.122,-10.1208,-10.1343,-10.1405,-10.1344,-10.1496,-10.1548,-10.1654,-10.1697,-10.1634,-10.1861,-10.1905,-10.2109,-10.2176,-10.2219,-10.2259,-10.2184,-10.2477,-10.2505,-10.2531,-10.2623,-10.266,-10.2223,-10.2222,-10.2221,-10.222,0,-10.136,-10.1485,-10.1597,-10.1706,-10.178,-10.1922,-10.193,-10.2007,-10.1987,-10.2003,-10.2172,-10.2224,-10.2332,-10.2379,-10.2359,-10.2581,-10.2544,-10.248,-10.2366,-10.2579,-10.2665,-10.27,-10.2237,-10.2233,-10.223,-10.2228,0,0,-10.1683,-10.1786,-10.1828,-10.1877,-10.1962,-10.2056,-10.2196,-10.2305,-10.2371,-10.2447,-10.2563,-10.2718,-10.266,-10.2718,-10.2704,-10.2802,-10.3015,-10.2725,-10.2726,-10.2777,-10.3263,-10.3311,-10.3353,-10.2983,-10.299,-10.2995,-10.3257,0,-10.1936,-10.2184,-10.2178,-10.2407,-10.2522,-10.2466,-10.2588,-10.2652,-10.2672,-10.277,-10.2789,-10.2901,-10.2815,-10.285,-10.2945,-10.2969,-10.3112,-10.295,-10.3089,-10.3094,-10.3073,-10.3398,-10.3449,-10.3693,-10.3291,-10.3296,-10.3301,0,-10.2264,-10.2356,-10.2598,-10.2668,-10.2715,-10.2825,-10.2926,-10.3021,-10.3092,-10.31,-10.3167,-10.3138,-10.3277,-10.3161,-10.3353,-10.3243,-10.3299,-10.332,-10.3329,-10.3341,-10.321,-10.3418,-10.3771,-10.3808,-10.3354,-10.3349,-10.3345,0,-10.2477,-10.266,-10.2829,-10.2872,-10.2958,-10.3037,-10.3075,-10.314,-10.3207,-10.3294,-10.3337,-10.3437,-10.3493,-10.357,-10.3569,-10.3484,-10.3763,-10.3646,-10.3772,-10.3773,-10.3833,-10.3829,-10.42,-10.387,-10.3869,-10.3869,-10.3868,0,-10.276,-10.291,-10.2926,-10.3029,-10.3196,-10.3187,-10.3351,-10.3381,-10.3441,-10.3548,-10.3504,-10.3605,-10.3597,-10.3698,-10.3697,-10.3857,-10.3882,-10.389,-10.3888,-10.3895,-10.3894,-10.3931,-10.3914,-10.3878,-10.3876,-10.3874,-10.3873,0,-10.3025,-10.3042,-10.3222,-10.329,-10.3311,-10.343,-10.3487,-10.3585,-10.3601,-10.3738,-10.3769,-10.3795,-10.3912,-10.3919,-10.4053,-10.4052,-10.4247,-10.4225,-10.4224,-10.422,-10.4346,-10.4334,-10.4753,-10.4808,-10.4443,-10.4446,-10.4449,0,-10.3205,-10.332,-10.3401,-10.3472,-10.3517,-10.363,-10.3699,-10.3695,-10.3768,-10.386,-10.3947,-10.4061,-10.4152,-10.4342,-10.4371,-10.4474,-10.4455,-10.4595,-10.4469,-10.4473,-10.4457,-10.445,-10.4462,-10.4618,-10.4623,-10.4626,-10.4629,0,-10.3522,-10.3526,-10.3628,-10.3736,-10.382,-10.3903,-10.398,-10.4039,-10.4044,-10.4128,-10.425,-10.4322,-10.4461,-10.4575,-10.4676,-10.4712,-10.4672,-10.4668,-10.4703,-10.471,-10.4705,-10.471,-10.429,-10.4658,-10.4655,-10.4653,-10.4651,-10.465,-10.375,-10.3851,-10.3925,-10.4041,-10.41,-10.4174,-10.427,-10.43,-10.4403,-10.4518,-10.4509,-10.4644,-10.4713,-10.4845,-10.489,-10.4994,-10.4946,-10.4996,-10.5008,-10.5021,-10.5035,-10.4689,-10.5012,-10.5011,-10.501,-10.501,-10.5009,0,-10.4066,-10.4112,-10.4219,-10.4331,-10.4423,-10.438,-10.4463,-10.4542,-10.4663,-10.4732,-10.4824,-10.4964,-10.5075,-10.5114,-10.5221,-10.5297,-10.5281,-10.5325,-10.5319,-10.5329,-10.5071,-10.5031,-10.5337,-10.5337,-10.5336,-10.5336,-10.5336,-10.5336,-10.4241,-10.4409,-10.4422,-10.4618,-10.4661,-10.4797,-10.4848,-10.4916,-10.4971,-10.5131,-10.5225,-10.525,-10.5307,-10.5419,-10.5518,-10.5526,-10.5568,-10.562,-10.5621,-10.5379,-10.5346,-10.5315,-10.5277,-10.5629,-10.563,-10.5869,-10.5871,-10.5873]}]]